NOAA NWS Hourly Roundups by Site

Regional Weather Roundup for State College, PA

To Select Another Site Choose from List

Select Site:  

000
ASUS41 KCTP 201610
RWRCTP

REGIONAL WEATHER ROUNDUP
NATIONAL WEATHER SERVICE STATE COLLEGE PA
1200 PM EDT MON MAY 20 2019

Note: "fair" indicates few or no clouds below 12,000 feet with no
significant weather and/or obstructions to visibility.

* = STATION THAT DOES NOT REPORT PRECIPITATION /E.G. RAIN...SNOW...ETC/
    THUNDER OR FOG.

PAZ002>004-007>009-013>016-020>023-029>032-201700-
WESTERN PENNSYLVANIA

CITY           SKY/WX    TMP DP  RH WIND       PRES   REMARKS
ERIE           PTSUNNY   60  52  74 W20G31    29.87R
MEADVILLE      FAIR      68  53  58 W23G33    29.87R
FRANKLIN*      CLOUDY    67  56  67 SW15G21   29.87F
NEW CASTLE     FAIR      71  56  58 W17G25    29.88F
BEAVER COUNTY  PTSUNNY  N/A N/A N/A W15       29.90S
BUTLER*        PTSUNNY   71  59  65 SW14G25   29.89F
PITTSBURGH INT PTSUNNY   71  57  61 SW14G28   29.89F
PITTSBURGH     CLOUDY    68  59  73 SW12G23   29.91S
INDIANA*       NOT AVBL
LATROBE        PTSUNNY   68  61  77 W17       29.92R
WASHINGTON CO* CLOUDY    68  61  78 SW8       29.96R
$$

PAZ004>006-010>012-017>019-024>028-033>037-041-042-045-046-049>053-201700-
CENTRAL PENNSYLVANIA

CITY           SKY/WX    TMP DP  RH WIND       PRES   REMARKS
BRADFORD       CLOUDY    67  53  61 W9G18     29.85S
DUBOIS         PTSUNNY   69  58  67 W20G26    29.87S
CLEARFIELD     FAIR      72  58  61 W18G26    29.86S
JOHNSTOWN      PTSUNNY   68  57  68 W20G29    29.92R
ALTOONA        PTSUNNY   72  57  59 SW15G29   29.88F
STATE COLLEGE  MOSUNNY   73  61  64 W13G20    29.86F
WILLIAMSPORT   FAIR      75  60  59 SW16      29.80F
SELINSGROVE    NOT AVBL
FT INDIANTOWN  PTSUNNY   80  65  61 SW12G20   29.82F
CAPITAL CITY   PTSUNNY   82  61  48 W15G23    29.83F
HARRISBURG     PTSUNNY   79  65  62 SW9       29.82F
YORK           FAIR      81  63  54 W12G20    29.85S
$$

PAZ038>040-043-044-047-048-054-055-060>062-067>071-201700-
EASTERN PENNSYLVANIA

CITY           SKY/WX    TMP DP  RH WIND       PRES   REMARKS
SCRANTON       CLOUDY    74  64  71 SW12      29.82S
MOUNT POCONO   CLOUDY    71  59  65 SW17G29   29.86S
ALLENTOWN      FAIR      82  65  56 SW16G26   29.82F
QUAKERTOWN*    MOSUNNY   81  66  61 W13G20    29.84F
READING        FAIR      84  69  60 W10       29.81F
LANCASTER      FAIR      81  64  56 SW13G23   29.83F
COATESVILLE    FAIR      81  64  57 SW7G17    29.87F
POTTSTOWN      PTSUNNY   80  62  54 SW12G18   29.85F
BLUE BELL      FAIR      81  63  54 SW15      29.85F
DOYLESTOWN     FAIR      84  64  50 SW13G20   29.83S
WILLOW GROVE   NOT AVBL
NORTH PHILA    FAIR      87  62  43 W21G26    29.84F
PHILADELPHIA   FAIR      85  63  47 SW17      29.84S
$$


 

View Past Reports for State College, PA.

Products Courtesy of NOAA-NWS
NWS Information Parsing Script by Ken True at Saratoga Weather - Script by SE Lincoln Weather.